Time,TemperatureF,DewpointF,PressureIn,WindDirection,WindDirectionDegrees,WindSpeedMPH,WindSpeedGustMPH,Humidity,HourlyPrecipIn,Conditions,Clouds,dailyrainin,SoftwareType,DateUTC
2013-12-15 00:01:00,30.8,29.0,30.00,NNW,331,2.0,10.0,91,0.00,,,0.00,weatherlink.com 1.10,2013-12-15 05:01:00,
2013-12-15 00:16:00,30.8,28.0,29.99,WNW,303,3.0,8.0,90,0.00,,,0.00,weatherlink.com 1.10,2013-12-15 05:16:00,
2013-12-15 00:31:00,30.8,28.0,30.00,West,281,1.0,11.0,90,0.00,,,0.00,weatherlink.com 1.10,2013-12-15 05:31:00,
2013-12-15 00:46:00,30.8,28.0,30.00,West,259,0.0,6.0,90,0.00,,,0.00,weatherlink.com 1.10,2013-12-15 05:46:00,
2013-12-15 01:01:00,30.8,29.0,30.00,West,261,0.0,7.0,91,0.00,,,0.00,weatherlink.com 1.10,2013-12-15 06:01:00,
2013-12-15 01:16:00,30.8,29.0,30.00,SW,215,0.0,8.0,91,0.00,,,0.00,weatherlink.com 1.10,2013-12-15 06:16:00,
2013-12-15 01:31:00,30.7,28.0,30.00,WSW,252,2.0,6.0,91,0.00,,,0.00,weatherlink.com 1.10,2013-12-15 06:31:00,
2013-12-15 01:46:00,30.6,28.0,30.00,WSW,237,5.0,9.0,91,0.00,,,0.00,weatherlink.com 1.10,2013-12-15 06:46:00,
2013-12-15 02:01:00,30.6,28.0,30.00,West,275,0.0,9.0,91,0.00,,,0.00,weatherlink.com 1.10,2013-12-15 07:01:00,
2013-12-15 02:16:00,30.6,28.0,30.01,NW,323,2.0,10.0,90,0.00,,,0.00,weatherlink.com 1.10,2013-12-15 07:16:00,
2013-12-15 02:32:00,30.6,28.0,30.02,WNW,286,2.0,9.0,88,0.00,,,0.00,weatherlink.com 1.10,2013-12-15 07:32:00,
2013-12-15 02:47:00,30.5,27.0,30.02,West,268,5.0,7.0,87,0.00,,,0.00,weatherlink.com 1.10,2013-12-15 07:47:00,
2013-12-15 03:02:00,30.3,27.0,30.03,WNW,289,0.0,11.0,87,0.00,,,0.00,weatherlink.com 1.10,2013-12-15 08:02:00,
2013-12-15 03:17:00,29.9,26.0,30.04,West,278,0.0,9.0,86,0.00,,,0.00,weatherlink.com 1.10,2013-12-15 08:17:00,
2013-12-15 03:32:00,29.8,26.0,30.04,NW,317,3.0,11.0,87,0.00,,,0.00,weatherlink.com 1.10,2013-12-15 08:32:00,
2013-12-15 03:47:00,29.4,26.0,30.05,WSW,252,0.0,10.0,87,0.00,,,0.00,weatherlink.com 1.10,2013-12-15 08:47:00,
2013-12-15 04:02:00,29.0,25.0,30.06,NW,305,0.0,11.0,86,0.00,,,0.00,weatherlink.com 1.10,2013-12-15 09:02:00,
2013-12-15 04:17:00,28.7,25.0,30.06,NW,306,0.0,9.0,87,0.00,,,0.00,weatherlink.com 1.10,2013-12-15 09:17:00,
2013-12-15 04:32:00,28.1,25.0,30.06,West,264,5.0,14.0,86,0.00,,,0.00,weatherlink.com 1.10,2013-12-15 09:32:00,
2013-12-15 04:47:00,27.5,24.0,30.06,West,279,4.0,12.0,87,0.00,,,0.00,weatherlink.com 1.10,2013-12-15 09:47:00,
2013-12-15 05:02:00,27.3,24.0,30.06,WSW,250,8.0,9.0,87,0.00,,,0.00,weatherlink.com 1.10,2013-12-15 10:02:00,
2013-12-15 05:17:00,27.0,24.0,30.06,West,275,1.0,11.0,88,0.00,,,0.00,weatherlink.com 1.10,2013-12-15 10:17:00,
2013-12-15 05:32:00,26.6,24.0,30.07,West,261,4.0,11.0,88,0.00,,,0.00,weatherlink.com 1.10,2013-12-15 10:32:00,
2013-12-15 05:47:00,26.2,23.0,30.08,WSW,254,9.0,13.0,87,0.00,,,0.00,weatherlink.com 1.10,2013-12-15 10:47:00,
2013-12-15 06:02:00,26.0,22.0,30.08,NNE,31,2.0,12.0,86,0.00,,,0.00,weatherlink.com 1.10,2013-12-15 11:02:00,
2013-12-15 06:17:00,26.0,22.0,30.09,WSW,257,2.0,9.0,86,0.00,,,0.00,weatherlink.com 1.10,2013-12-15 11:17:00,
2013-12-15 06:32:00,26.0,22.0,30.10,North,9,1.0,9.0,86,0.00,,,0.00,weatherlink.com 1.10,2013-12-15 11:32:00,
2013-12-15 06:47:00,26.1,23.0,30.10,SW,225,3.0,15.0,86,0.00,,,0.00,weatherlink.com 1.10,2013-12-15 11:47:00,
2013-12-15 07:02:00,26.0,22.0,30.10,WSW,258,2.0,12.0,86,0.00,,,0.00,weatherlink.com 1.10,2013-12-15 12:02:00,
2013-12-15 07:17:00,26.0,23.0,30.10,West,267,0.0,8.0,87,0.00,,,0.00,weatherlink.com 1.10,2013-12-15 12:17:00,
2013-12-15 07:32:00,25.9,23.0,30.11,WNW,290,1.0,11.0,87,0.00,,,0.00,weatherlink.com 1.10,2013-12-15 12:32:00,
2013-12-15 07:47:00,25.8,23.0,30.11,West,262,4.0,11.0,87,0.00,,,0.00,weatherlink.com 1.10,2013-12-15 12:47:00,
2013-12-15 08:02:00,25.8,23.0,30.12,West,268,2.0,11.0,87,0.00,,,0.00,weatherlink.com 1.10,2013-12-15 13:02:00,
2013-12-15 08:17:00,25.9,23.0,30.13,NNW,348,1.0,8.0,87,0.00,,,0.00,weatherlink.com 1.10,2013-12-15 13:17:00,
2013-12-15 08:32:00,26.1,23.0,30.13,West,273,3.0,13.0,87,0.00,,,0.00,weatherlink.com 1.10,2013-12-15 13:32:00,
2013-12-15 08:47:00,26.2,23.0,30.13,West,263,1.0,10.0,87,0.00,,,0.00,weatherlink.com 1.10,2013-12-15 13:47:00,
2013-12-15 09:02:00,26.4,23.0,30.13,SW,234,5.0,8.0,87,0.00,,,0.00,weatherlink.com 1.10,2013-12-15 14:02:00,
2013-12-15 09:18:00,26.5,23.0,30.14,West,260,6.0,10.0,87,0.00,,,0.00,weatherlink.com 1.10,2013-12-15 14:18:00,
2013-12-15 09:33:00,26.2,23.0,30.15,West,262,6.0,15.0,86,0.00,,,0.00,weatherlink.com 1.10,2013-12-15 14:33:00,
2013-12-15 09:48:00,26.3,23.0,30.15,West,269,7.0,14.0,86,0.00,,,0.00,weatherlink.com 1.10,2013-12-15 14:48:00,
2013-12-15 10:03:00,26.4,23.0,30.16,West,266,4.0,12.0,86,0.00,,,0.00,weatherlink.com 1.10,2013-12-15 15:03:00,
2013-12-15 10:18:00,26.4,23.0,30.16,West,261,8.0,15.0,85,0.00,,,0.00,weatherlink.com 1.10,2013-12-15 15:18:00,
2013-12-15 10:33:00,26.6,23.0,30.16,West,271,7.0,10.0,85,0.00,,,0.00,weatherlink.com 1.10,2013-12-15 15:33:00,
2013-12-15 10:48:00,26.8,23.0,30.16,WSW,257,6.0,9.0,85,0.00,,,0.00,weatherlink.com 1.10,2013-12-15 15:48:00,
2013-12-15 11:03:00,26.7,23.0,30.17,WSW,247,9.0,15.0,86,0.00,,,0.00,weatherlink.com 1.10,2013-12-15 16:03:00,
2013-12-15 11:18:00,26.6,23.0,30.16,WSW,242,6.0,13.0,86,0.00,,,0.00,weatherlink.com 1.10,2013-12-15 16:18:00,
2013-12-15 11:33:00,26.7,23.0,30.16,West,265,4.0,13.0,85,0.00,,,0.00,weatherlink.com 1.10,2013-12-15 16:33:00,
2013-12-15 11:48:00,27.0,23.0,30.15,WSW,253,6.0,14.0,85,0.00,,,0.00,weatherlink.com 1.10,2013-12-15 16:48:00,
2013-12-15 12:03:00,27.2,24.0,30.14,WSW,249,7.0,11.0,86,0.00,,,0.00,weatherlink.com 1.10,2013-12-15 17:03:00,
2013-12-15 12:18:00,27.0,24.0,30.14,SW,228,5.0,13.0,87,0.00,,,0.00,weatherlink.com 1.10,2013-12-15 17:18:00,
2013-12-15 12:33:00,27.2,23.0,30.13,SW,225,4.0,14.0,85,0.00,,,0.00,weatherlink.com 1.10,2013-12-15 17:33:00,
2013-12-15 12:48:00,27.5,23.0,30.12,WSW,239,7.0,10.0,84,0.00,,,0.00,weatherlink.com 1.10,2013-12-15 17:48:00,
2013-12-15 13:03:00,27.4,23.0,30.12,SW,223,9.0,11.0,84,0.00,,,0.00,weatherlink.com 1.10,2013-12-15 18:03:00,
2013-12-15 13:18:00,27.5,23.0,30.12,WSW,240,3.0,9.0,83,0.00,,,0.00,weatherlink.com 1.10,2013-12-15 18:18:00,
2013-12-15 13:33:00,27.8,23.0,30.13,WSW,249,8.0,12.0,82,0.00,,,0.00,weatherlink.com 1.10,2013-12-15 18:33:00,
2013-12-15 13:48:00,27.8,23.0,30.12,SW,236,13.0,15.0,81,0.00,,,0.00,weatherlink.com 1.10,2013-12-15 18:48:00,
2013-12-15 14:03:00,27.8,23.0,30.12,WSW,237,7.0,16.0,81,0.00,,,0.00,weatherlink.com 1.10,2013-12-15 19:03:00,
2013-12-15 14:18:00,27.6,23.0,30.12,West,262,8.0,14.0,81,0.00,,,0.00,weatherlink.com 1.10,2013-12-15 19:18:00,
2013-12-15 14:33:00,28.3,23.0,30.12,West,273,0.0,10.0,81,0.00,,,0.00,weatherlink.com 1.10,2013-12-15 19:33:00,
2013-12-15 14:48:00,28.3,23.0,30.12,South,189,5.0,12.0,81,0.00,,,0.00,weatherlink.com 1.10,2013-12-15 19:48:00,
2013-12-15 15:03:00,28.0,23.0,30.13,WSW,238,7.0,12.0,82,0.00,,,0.00,weatherlink.com 1.10,2013-12-15 20:03:00,
2013-12-15 15:18:00,28.3,23.0,30.13,SW,219,4.0,13.0,80,0.00,,,0.00,weatherlink.com 1.10,2013-12-15 20:18:00,
2013-12-15 15:33:00,28.2,23.0,30.13,WSW,242,7.0,12.0,82,0.00,,,0.00,weatherlink.com 1.10,2013-12-15 20:33:00,
2013-12-15 15:48:00,28.1,23.0,30.14,SW,234,5.0,14.0,82,0.00,,,0.00,weatherlink.com 1.10,2013-12-15 20:48:00,
2013-12-15 16:03:00,28.0,23.0,30.14,SW,229,3.0,11.0,81,0.00,,,0.00,weatherlink.com 1.10,2013-12-15 21:03:00,
2013-12-15 16:18:00,27.9,23.0,30.14,SSW,205,4.0,9.0,81,0.00,,,0.00,weatherlink.com 1.10,2013-12-15 21:18:00,
2013-12-15 16:33:00,28.0,23.0,30.13,South,188,8.0,9.0,81,0.00,,,0.00,weatherlink.com 1.10,2013-12-15 21:33:00,
2013-12-15 16:48:00,27.8,23.0,30.13,SSW,197,5.0,10.0,81,0.00,,,0.00,weatherlink.com 1.10,2013-12-15 21:48:00,
2013-12-15 17:03:00,27.8,23.0,30.14,WSW,238,4.0,8.0,81,0.00,,,0.00,weatherlink.com 1.10,2013-12-15 22:03:00,
2013-12-15 17:18:00,27.5,22.0,30.14,WSW,240,10.0,12.0,81,0.00,,,0.00,weatherlink.com 1.10,2013-12-15 22:18:00,
2013-12-15 17:33:00,27.4,23.0,30.15,SW,232,4.0,5.0,82,0.00,,,0.00,weatherlink.com 1.10,2013-12-15 22:33:00,
2013-12-15 17:48:00,27.4,23.0,30.16,SW,216,5.0,9.0,83,0.00,,,0.00,weatherlink.com 1.10,2013-12-15 22:48:00,
2013-12-15 18:03:00,27.4,23.0,30.14,SW,219,3.0,8.0,83,0.00,,,0.00,weatherlink.com 1.10,2013-12-15 23:03:00,
2013-12-15 18:18:00,27.4,23.0,30.13,SSE,160,3.0,6.0,84,0.00,,,0.00,weatherlink.com 1.10,2013-12-15 23:18:00,
2013-12-15 18:33:00,27.2,23.0,30.14,SSW,206,2.0,9.0,84,0.00,,,0.00,weatherlink.com 1.10,2013-12-15 23:33:00,
2013-12-15 18:48:00,27.3,23.0,30.14,SW,215,4.0,8.0,85,0.00,,,0.00,weatherlink.com 1.10,2013-12-15 23:48:00,
2013-12-15 19:03:00,27.5,24.0,30.15,SSW,200,4.0,9.0,85,0.00,,,0.00,weatherlink.com 1.10,2013-12-16 00:03:00,
2013-12-15 19:18:00,27.6,24.0,30.15,WSW,237,1.0,7.0,85,0.00,,,0.00,weatherlink.com 1.10,2013-12-16 00:18:00,
2013-12-15 19:33:00,27.8,24.0,30.16,WSW,237,2.0,10.0,85,0.00,,,0.00,weatherlink.com 1.10,2013-12-16 00:33:00,
2013-12-15 19:48:00,27.9,24.0,30.16,SW,217,6.0,7.0,85,0.00,,,0.00,weatherlink.com 1.10,2013-12-16 00:48:00,
2013-12-15 20:03:00,28.0,24.0,30.16,WSW,239,2.0,8.0,85,0.00,,,0.00,weatherlink.com 1.10,2013-12-16 01:03:00,
2013-12-15 20:18:00,28.0,24.0,30.17,SW,236,3.0,8.0,85,0.00,,,0.00,weatherlink.com 1.10,2013-12-16 01:18:00,
2013-12-15 20:33:00,28.0,24.0,30.16,South,179,6.0,6.0,86,0.00,,,0.00,weatherlink.com 1.10,2013-12-16 01:33:00,
2013-12-15 20:48:00,28.1,25.0,30.17,SW,236,3.0,8.0,86,0.00,,,0.00,weatherlink.com 1.10,2013-12-16 01:48:00,
2013-12-15 21:03:00,28.1,25.0,30.16,WSW,239,4.0,6.0,86,0.00,,,0.00,weatherlink.com 1.10,2013-12-16 02:03:00,
2013-12-15 21:18:00,28.1,25.0,30.16,SSW,213,4.0,7.0,86,0.00,,,0.00,weatherlink.com 1.10,2013-12-16 02:18:00,
2013-12-15 21:33:00,28.2,25.0,30.16,SSW,198,4.0,6.0,87,0.00,,,0.00,weatherlink.com 1.10,2013-12-16 02:33:00,
2013-12-15 21:48:00,28.3,25.0,30.16,SW,223,0.0,4.0,87,0.00,,,0.00,weatherlink.com 1.10,2013-12-16 02:48:00,
2013-12-15 22:03:00,28.4,25.0,30.16,SW,234,3.0,6.0,87,0.00,,,0.00,weatherlink.com 1.10,2013-12-16 03:03:00,
2013-12-15 22:18:00,28.5,25.0,30.16,SW,215,2.0,5.0,87,0.00,,,0.00,weatherlink.com 1.10,2013-12-16 03:18:00,
2013-12-15 22:33:00,28.6,25.0,30.16,SSW,198,0.0,5.0,87,0.00,,,0.00,weatherlink.com 1.10,2013-12-16 03:33:00,
2013-12-15 22:48:00,28.8,26.0,30.16,SSW,196,2.0,5.0,88,0.00,,,0.00,weatherlink.com 1.10,2013-12-16 03:48:00,
2013-12-15 23:03:00,29.0,26.0,30.16,SSW,209,5.0,7.0,88,0.00,,,0.00,weatherlink.com 1.10,2013-12-16 04:03:00,
2013-12-15 23:18:00,29.1,26.0,30.15,SSW,200,4.0,7.0,88,0.00,,,0.00,weatherlink.com 1.10,2013-12-16 04:18:00,
2013-12-15 23:33:00,29.2,26.0,30.15,SW,234,2.0,6.0,89,0.00,,,0.00,weatherlink.com 1.10,2013-12-16 04:33:00,
2013-12-15 23:48:00,29.4,27.0,30.14,South,188,4.0,7.0,89,0.00,,,0.00,weatherlink.com 1.10,2013-12-16 04:48:00,